User: anonymous   Login
Location: Unspecified
(0.0000°N, 0.0000°E)
Time: 10:34:56
(UTC+00:00)
Language:

CORIOLIS - Orbit

View from above orbital plane
View from above orbital plane
View from above satellite
View from above satellite

Ground track
Ground track

The orbit data is extracted from the following two-line orbital elements,

1 27640U 03001A   18231.55239171 -.00000010  00000-0  15991-4 0  9992
2 27640  98.7376 240.8338 0014611 152.6208   7.3070 14.18985825808695
Epoch (UTC): 19 August 2018 13:15:26
Eccentricity: 0.0014611
inclination: 98.7376°
perigee height: 818 km
apogee height: 839 km
right ascension of ascending node: 240.8338°
argument of perigee: 152.6208°
revolutions per day: 14.18985825
mean anomaly at epoch: 7.3070°
orbit number at epoch: 80869

The dashed part of the orbit path shows where the satellite is in the earth's shadow,  

DLR